星链-5269 (STARLINK-5269 )

导读 | 豆包AI

STARLINK-5269是美国太空探索技术公司SpaceX星链星座中的一颗卫星,于2022年10月28日发射入轨,属于星链互联网卫星组网的一员。星链项目旨在构建全球覆盖的低轨卫星互联网,该卫星承担着为全球偏远地区、各类移动载体提供高速互联网接入服务的任务,依托低轨轨道优势缩短通信延迟,提升网络覆盖能力。

基本信息
目录编号:
54161
目录名称:
STARLINK-5269
国际标识:
2022-141E
轨道中心:
EARTH
卫星名称:
星链-5269
卫星全名:
星链-5269 (STARLINK-5269 )
卫星状态:
在轨 (已飞行1280 天)
发射日期:
2022-10-28 UTC
国别 :
美国 (US)
星等 :
--
轨道信息
数据来源 国际轨道数据
星历时间: 2026-04-30T13:02:59+0800
10小时前
查看轨道信息
半长轴: 6917.89km
偏心率: 0.0001226
轨道倾角: 53.216°
近地点辐角 81.714°
升交点赤经 142.939°
平近点角 278.399°
近地点: 538.904km
远地点: 540.602km
周期: 95.438分钟
每日圈数: 15.08837
详细信息
固有亮度:
5
最大亮度:
2.5
卫星平台:
Starlink v1.5
覆盖范围:
全球
运营商:
太空探索技术公司
运营商所在国:
美国
制造商(研发单位):
太空探索技术公司
制造商所在国:
美国
使用方式:
暂无
卫星简介
星链(Starlink)计划是由太空探索技术公司(SpaceX)提出的一个巨型低轨卫星互联网星座项目,计划在2019年至2024年间在太空搭建由约1.2万颗卫星组成的“星链”网络,其中1584颗将部署在地球上空550千米处的近地轨道,并从2020年开始工作。该卫星仍在工作。
2D轨道图
3D轨道图
轨道高度分析图
轨道倾角分析图
轨道综合分析图
查看轨道综合分析图